Weather in Blitar

Indonesia     8°05′46″S   112°10′13″E
temp.,
°C
wind,
m/s
gust,
m/s
humid.,
%
clouds,
%
prec.,
mm/h
press.,
hPa
HPBL,
m
13 april, tue
tue1301:00+21ese23956 0.4 101359
04:00+21ese22965 0.1 101250
07:00+24se12830 0.1 1014214
10:00+29ssw23581 0.0 10131251
13:00+30s325845 0.4 10101606
16:00+25s238611 2.4 1010519
19:00+22ese11978 4.0 101328
22:00+21ese11968 0.1 101426
14 april, wed
wed1401:00+21e219586 0.1 101230
04:00+20e119424 0.0 101222
07:00+23se138540 0.0 1013132
10:00+29s22553 0.0 10121237
13:00+29ssw225995 0.2 10101354
16:00+25s238728 2.1 1010500
19:00+22ese24977 2.6 1012116
22:00+21ese129684 0.0 101338
15 april, thu
thu1501:00+20ese1196100 0.0 101223
04:00+19e119581 0.0 101219
07:00+22e12866 0.0 101387
10:00+29sse23534 0.0 10121275
13:00+30sw335428 0.1 10101586
16:00+25s248381 0.8 1010597
19:00+22ese119687 2.1 101232
22:00+21ene119569 0.8 101311
16 april, fri
fri1601:00+21ene1195100 1.1 101212
04:00+21ene1195100 0.0 101215
07:00+23ene018711 0.0 101392
10:00+29wsw125727 0.1 10121372
13:00+26nw127990 2.4 1010307
16:00+25ssw128785 3.8 1010258
19:00+22ese119766 5.1 101331
22:00+21ese119611 0.1 101418
17 april, sat
sat1701:00+21ese229732 0.1 101343
04:00+20ese239794 0.0 101367
07:00+23se259258 0.0 1015263
10:00+29sse345722 0.0 10141371
13:00+30ssw445040 0.1 10111641
16:00+27s356716 0.1 1011867
19:00+22se2592100 0.1 1014128
22:00+21e239399 0.0 101574